EW5196 Weather Reports


time (UTC)temp
C
wind
direction
speed
KPH
gust
KPH
rain 1hr
cm
rain 24hr
cm
rain mn
cm
humidity
%
barometer
mb
20260904085609 23 176 0.0 3.2 0.00 0.00 0.00 94 1016.0
20260904085108 24 209 0.0 3.2 0.00 0.00 0.00 94 1016.2
20260904084604 24 227 1.6 1.6 0.00 0.00 0.00 94 1016.1
20260904084100 24 242 1.6 1.6 0.00 0.00 0.00 93 1016.1
20260904083556 24 159 0.0 1.6 0.00 0.00 0.00 93 1015.9
20260904083052 24 159 3.2 3.2 0.00 0.00 0.00 93 1015.8
20260904082547 24 148 0.0 1.6 0.00 0.00 0.00 93 1015.8
20260904082042 24 159 0.0 0.0 0.00 0.00 0.00 93 1015.9
20260904081537 24 153 0.0 3.2 0.00 0.00 0.00 92 1015.7
20260904081032 25 85 0.0 0.0 0.00 0.00 0.00 92 1015.4
20260904080528 25 121 3.2 3.2 0.00 0.00 0.00 91 1015.4
20260904080024 25 247 1.6 1.6 0.00 0.00 0.00 91 1015.6
20260904075520 25 92 0.0 0.0 0.00 0.00 0.00 91 1015.9
20260904075015 25 143 1.6 3.2 0.00 0.00 0.00 89 1015.7
20260904074514 25 217 0.0 1.6 0.00 0.00 0.00 89 1015.6
20260904074009 25 186 0.0 1.6 0.00 0.00 0.00 89 1015.7
20260904073504 25 193 3.2 4.8 0.00 0.00 0.00 90 1015.5
20260904073001 25 5 3.2 3.2 0.00 0.00 0.00 91 1015.3
20260904072456 25 131 1.6 3.2 0.00 0.00 0.00 90 1015.4
20260904071956 25 163 0.0 1.6 0.00 0.00 0.00 90 1015.4
20260904071451 25 132 0.0 1.6 0.00 0.00 0.00 88 1015.3
20260904070946 25 143 0.0 3.2 0.00 0.00 0.00 85 1015.4
20260904070444 26 159 0.0 0.0 0.00 0.00 0.00 86 1015.4
20260904065939 26 180 1.6 3.2 0.00 0.00 0.00 84 1015.3
20260904065435 26 158 3.2 3.2 0.00 0.00 0.00 83 1015.2
20260904064930 26 184 0.0 0.0 0.00 0.00 0.00 83 1015.5
20260904064427 26 200 3.2 3.2 0.00 0.00 0.00 82 1015.5
20260904063921 27 119 0.0 1.6 0.00 0.00 0.00 83 1015.5
20260904063418 27 145 0.0 3.2 0.00 0.00 0.00 78 1015.5
20260904062913 26 259 3.2 6.4 0.00 0.00 0.00 84 1015.7
20260904062409 26 147 0.0 1.6 0.00 0.00 0.00 84 1015.5
20260904061905 27 172 0.0 1.6 0.00 0.00 0.00 84 1015.8
20260904061401 27 247 1.6 8.0 0.00 0.00 0.00 81 1016.0
20260904060857 27 165 0.0 4.8 0.00 0.00 0.00 83 1016.2
20260904060352 27 252 1.6 8.0 0.00 0.00 0.00 84 1016.4
20260904055848 27 225 3.2 6.4 0.00 0.00 0.00 85 1016.2
20260904055342 27 239 0.0 4.8 0.00 0.00 0.00 85 1016.3
20260904054838 26 158 6.4 9.7 0.00 0.00 0.00 87 1016.8
20260904054334 26 225 0.0 1.6 0.00 0.00 0.00 87 1015.4
20260904053829 26 132 0.0 0.0 0.00 0.00 0.00 88 1015.9
20260904053329 26 184 0.0 3.2 0.00 0.00 0.00 89 1015.5
20260904052825 26 80 0.0 0.0 0.00 0.00 0.00 91 1015.8
20260904052321 26 147 0.0 0.0 0.00 0.00 0.00 90 1015.6
20260904051817 26 154 0.0 0.0 0.00 0.00 0.00 90 1015.7
20260904051313 26 172 0.0 1.6 0.00 0.00 0.00 89 1015.8
20260904050807 26 143 0.0 1.6 0.00 0.00 0.00 88 1015.6
20260904050305 26 140 0.0 1.6 0.00 0.00 0.00 89 1015.9
20260904045804 26 134 0.0 1.6 0.00 0.00 0.00 91 1015.9
20260904045259 26 155 0.0 1.6 0.00 0.00 0.00 91 1016.1
20260904044754 26 173 1.6 3.2 0.00 0.00 0.00 92 1016.0
20260904044251 26 177 1.6 3.2 0.00 0.00 0.00 93 1015.9
20260904043746 26 172 0.0 1.6 0.00 0.00 0.00 93 1015.9
20260904043243 26 194 0.0 1.6 0.00 0.00 0.00 93 1015.9
20260904042737 26 184 0.0 1.6 0.00 0.00 0.00 93 1015.6
20260904042234 26 153 1.6 3.2 0.00 0.00 0.00 94 1015.8
20260904041733 26 161 0.0 1.6 0.00 0.00 0.00 94 1015.7
20260904041230 26 172 0.0 1.6 0.00 0.00 0.00 94 1016.0
20260904040725 26 165 1.6 1.6 0.00 0.00 0.00 93 1016.0
20260904040221 26 165 1.6 1.6 0.00 0.00 0.00 93 1015.9
20260904035717 26 163 1.6 3.2 0.00 0.00 0.00 93 1015.9
20260904035212 26 270 0.0 3.2 0.00 0.00 0.00 94 1016.0
20260904034710 26 192 0.0 1.6 0.00 0.00 0.00 94 1016.1
20260904034207 26 147 0.0 0.0 0.00 0.00 0.00 94 1016.0
20260904033703 26 165 0.0 1.6 0.00 0.00 0.00 94 1016.2
20260904033159 26 160 0.0 1.6 0.00 0.00 0.00 93 1016.3
20260904032655 26 154 0.0 0.0 0.00 0.00 0.00 93 1016.5
20260904032154 26 158 1.6 1.6 0.00 0.00 0.00 93 1016.5
20260904031648 26 156 0.0 0.0 0.00 0.00 0.00 93 1016.5
20260904031143 26 156 0.0 1.6 0.00 0.00 0.00 93 1016.4
20260904030639 26 133 1.6 1.6 0.00 0.00 0.00 93 1016.2
20260904030134 26 177 0.0 1.6 0.00 0.00 0.00 92 1016.3
20260904025630 26 165 0.0 0.0 0.00 0.00 0.00 92 1016.2
20260904025125 26 168 0.0 1.6 0.00 0.00 0.00 92 1016.4
20260904024620 26 232 0.0 1.6 0.00 0.00 0.00 92 1016.1
20260904024116 26 225 0.0 1.6 0.00 0.00 0.00 93 1016.3
20260904023612 26 236 1.6 1.6 0.00 0.00 0.00 93 1016.1
20260904023107 26 164 0.0 1.6 0.00 0.00 0.00 92 1016.0
20260904022602 26 172 0.0 1.6 0.00 0.00 0.00 92 1016.0
20260904022059 26 147 0.0 0.0 0.00 0.00 0.00 92 1016.1
20260904021554 26 203 0.0 1.6 0.00 0.00 0.00 92 1016.0
20260904021049 26 126 1.6 1.6 0.00 0.00 0.00 93 1016.0
20260904020544 26 160 0.0 3.2 0.00 0.00 0.00 93 1016.0
20260904020039 26 133 0.0 1.6 0.00 0.00 0.00 92 1016.0
20260904015533 26 147 0.0 1.6 0.00 0.00 0.00 92 1016.1
20260904015032 26 172 0.0 0.0 0.00 0.00 0.00 92 1016.1
20260904014526 26 134 0.0 0.0 0.00 0.00 0.00 91 1016.5
20260904014022 26 154 0.0 0.0 0.00 0.00 0.00 91 1016.2
20260904013518 26 154 0.0 0.0 0.00 0.00 0.00 91 1016.4
20260904013015 26 160 0.0 1.6 0.00 0.00 0.00 91 1016.4
20260904012514 26 154 0.0 0.0 0.00 0.00 0.00 91 1016.4
20260904012009 27 141 1.6 1.6 0.00 0.00 0.00 90 1016.5
20260904011503 27 159 0.0 0.0 0.00 0.00 0.00 90 1016.4
20260904010958 27 187 0.0 0.0 0.00 0.00 0.00 90 1016.5
20260904010455 27 154 0.0 0.0 0.00 0.00 0.00 89 1016.7
20260904005955 27 159 0.0 1.6 0.00 0.00 0.00 88 1016.8
20260904005450 27 135 1.6 1.6 0.00 0.00 0.00 88 1016.8
20260904004945 27 187 0.0 1.6 0.00 0.00 0.00 88 1016.7
20260904004442 27 211 0.0 3.2 0.00 0.00 0.00 88 1016.7
20260904003941 27 186 0.0 1.6 0.00 0.00 0.00 88 1016.8
20260904003437 27 160 0.0 1.6 0.00 0.00 0.00 88 1016.7
20260904002932 27 202 0.0 1.6 0.00 0.00 0.00 88 1016.7
20260904002429 28 182 0.0 1.6 0.00 0.00 0.00 87 1016.6
20260904001927 28 184 0.0 0.0 0.00 0.00 0.00 87 1016.3
20260904001423 28 159 0.0 1.6 0.00 0.00 0.00 86 1016.2
20260904000918 28 172 0.0 1.6 0.00 0.00 0.00 86 1016.4
20260904000418 28 198 0.0 1.6 0.00 0.00 0.00 86 1016.3
20260903235913 28 203 1.6 1.6 0.00 0.00 0.00 86 1016.1
20260903235409 28 165 0.0 0.0 0.00 0.00 0.00 86 1015.9
20260903234908 28 157 0.0 1.6 0.00 0.00 0.00 85 1016.0
20260903234404 28 172 0.0 1.6 0.00 0.00 0.00 85 1015.6
20260903233900 29 169 0.0 1.6 0.00 0.00 0.00 84 1015.5
20260903233356 29 215 0.0 3.2 0.00 0.00 0.00 83 1015.9
20260903232855 29 219 1.6 3.2 0.00 0.00 0.00 83 1015.8
20260903232351 30 188 0.0 1.6 0.00 0.00 0.00 81 1015.9
20260903231850 30 172 0.0 1.6 0.00 0.00 0.00 80 1015.9
20260903231345 30 247 0.0 1.6 0.00 0.00 0.00 78 1015.9
20260903230841 30 227 1.6 3.2 0.00 0.00 0.00 76 1015.7
20260903230336 30 229 1.6 3.2 0.00 0.00 0.00 77 1015.5
20260903225832 30 259 1.6 1.6 0.00 0.00 0.00 78 1015.3
20260903225328 30 223 1.6 1.6 0.00 0.00 0.00 78 1015.6
20260903224824 30 225 0.0 1.6 0.00 0.00 0.00 77 1015.5
20260903224320 31 187 0.0 1.6 0.00 0.00 0.00 77 1015.6
20260903223816 30 225 0.0 0.0 0.00 0.00 0.00 75 1015.4
20260903223314 31 260 0.0 0.0 0.00 0.00 0.00 74 1015.3
20260903222809 31 187 0.0 1.6 0.00 0.00 0.00 75 1015.5
20260903222308 31 190 0.0 1.6 0.00 0.00 0.00 74 1015.5
20260903221803 31 247 0.0 1.6 0.00 0.00 0.00 69 1015.3
20260903221302 31 265 0.0 1.6 0.00 0.00 0.00 70 1015.5
20260903220801 32 230 0.0 1.6 0.00 0.00 0.00 69 1015.4
20260903220255 32 222 0.0 0.0 0.00 0.00 0.00 66 1015.7
20260903215753 32 172 0.0 0.0 0.00 0.00 0.00 64 1015.8
20260903215250 32 247 0.0 0.0 0.00 0.00 0.00 62 1015.8
20260903214748 32 260 0.0 0.0 0.00 0.00 0.00 62 1015.8
20260903214244 33 172 0.0 0.0 0.00 0.00 0.00 60 1015.8
20260903213738 33 184 0.0 0.0 0.00 0.00 0.00 60 1015.8
20260903213234 33 171 0.0 4.8 0.00 0.00 0.00 57 1015.6
20260903212730 33 246 0.0 1.6 0.00 0.00 0.00 57 1015.5
20260903212227 33 231 0.0 0.0 0.00 0.00 0.00 57 1015.3
20260903211725 34 260 0.0 0.0 0.00 0.00 0.00 56 1015.6
20260903211222 34 184 0.0 1.6 0.00 0.00 0.00 53 1015.7
20260903210718 35 317 0.0 1.6 0.00 0.00 0.00 53 1015.7
20260903210213 35 306 0.0 1.6 0.00 0.00 0.00 52 1016.0
20260903205713 35 290 1.6 4.8 0.00 0.00 0.00 51 1016.1
20260903205212 35 241 0.0 3.2 0.00 0.00 0.00 54 1015.9
20260903204707 35 185 0.0 3.2 0.00 0.00 0.00 55 1016.0
20260903204204 35 301 8.0 8.0 0.00 0.00 0.00 52 1016.1
20260903203659 35 137 0.0 3.2 0.00 0.00 0.00 55 1015.7
20260903203154 35 245 4.8 6.4 0.00 0.00 0.00 53 1016.0
20260903202648 35 339 1.6 4.8 0.00 0.00 0.00 54 1016.2
20260903202144 35 137 1.6 4.8 0.00 0.00 0.00 55 1016.0
20260903201638 35 247 4.8 6.4 0.00 0.00 0.00 52 1016.3
20260903201137 35 299 0.0 4.8 0.00 0.00 0.00 56 1016.3
20260903200633 35 177 1.6 3.2 0.00 0.00 0.00 54 1016.3
20260903200128 35 276 1.6 3.2 0.00 0.00 0.00 54 1016.4
20260903195624 35 354 0.0 6.4 0.00 0.00 0.00 55 1016.5
20260903195119 35 154 0.0 0.0 0.00 0.00 0.00 54 1016.4
20260903194615 35 132 0.0 0.0 0.00 0.00 0.00 52 1016.3
20260903194114 35 338 0.0 1.6 0.00 0.00 0.00 52 1016.8
20260903193610 36 249 1.6 6.4 0.00 0.00 0.00 49 1016.7
20260903193106 36 252 3.2 6.4 0.00 0.00 0.00 48 1016.8
20260903192602 36 262 0.0 3.2 0.00 0.00 0.00 51 1016.9
20260903192057 36 301 1.6 3.2 0.00 0.00 0.00 49 1016.9
20260903191553 36 220 0.0 4.8 0.00 0.00 0.00 48 1016.8
20260903191048 36 230 1.6 3.2 0.00 0.00 0.00 48 1016.9
20260903190547 36 161 0.0 3.2 0.00 0.00 0.00 49 1017.0
20260903190047 35 260 4.8 4.8 0.00 0.00 0.00 53 1017.1
20260903185543 35 254 4.8 4.8 0.00 0.00 0.00 52 1017.2
20260903185038 36 286 3.2 8.0 0.00 0.00 0.00 52 1017.3
20260903184534 36 287 3.2 3.2 0.00 0.00 0.00 52 1017.3
20260903184029 36 235 0.0 6.4 0.00 0.00 0.00 52 1017.2
20260903183528 35 137 0.0 3.2 0.00 0.00 0.00 51 1017.6
20260903183024 35 222 3.2 8.0 0.00 0.00 0.00 53 1017.6
20260903182522 35 254 3.2 6.4 0.00 0.00 0.00 55 1017.6
20260903182019 35 258 6.4 9.7 0.00 0.00 0.00 53 1017.7
20260903181512 35 261 4.8 4.8 0.00 0.00 0.00 56 1017.8
20260903181011 35 278 4.8 8.0 0.00 0.00 0.00 54 1017.7
20260903180507 35 210 1.6 6.4 0.00 0.00 0.00 55 1017.8
20260903180006 35 249 4.8 4.8 0.00 0.00 0.00 55 1017.9
20260903175505 34 345 0.0 0.0 0.00 0.00 0.00 58 1018.2
20260903175004 33 277 1.6 6.4 0.00 0.00 0.00 58 1018.1
20260903174459 34 237 1.6 4.8 0.00 0.00 0.00 56 1018.2
20260903173954 33 286 0.0 6.4 0.00 0.00 0.00 58 1018.2
20260903173449 34 153 0.0 6.4 0.00 0.00 0.00 57 1018.1
20260903172945 33 235 4.8 6.4 0.00 0.00 0.00 58 1018.3
20260903172440 33 170 0.0 4.8 0.00 0.00 0.00 59 1018.3
20260903171935 33 144 4.8 6.4 0.00 0.00 0.00 60 1018.2
20260903171431 33 247 4.8 6.4 0.00 0.00 0.00 61 1018.4
20260903170931 33 217 3.2 4.8 0.00 0.00 0.00 61 1018.3
20260903170425 32 167 3.2 4.8 0.00 0.00 0.00 61 1018.3
20260903165924 32 148 3.2 4.8 0.00 0.00 0.00 62 1018.2
20260903165419 32 248 8.0 9.7 0.00 0.00 0.00 62 1018.6
20260903164919 32 279 3.2 4.8 0.00 0.00 0.00 63 1018.5
20260903164414 32 242 8.0 8.0 0.00 0.00 0.00 62 1018.8
20260903163914 32 253 6.4 8.0 0.00 0.00 0.00 64 1018.6
20260903163410 32 263 1.6 3.2 0.00 0.00 0.00 65 1018.6
20260903162906 32 236 4.8 4.8 0.00 0.00 0.00 66 1018.6
20260903162402 32 336 0.0 1.6 0.00 0.00 0.00 68 1018.8
20260903161857 31 224 1.6 3.2 0.00 0.00 0.00 68 1018.8
20260903161352 31 310 3.2 8.0 0.00 0.00 0.00 68 1018.9
20260903160849 31 212 4.8 8.0 0.00 0.00 0.00 67 1019.0
20260903160347 31 273 1.6 3.2 0.00 0.00 0.00 69 1018.8
20260903155846 31 48 1.6 9.7 0.00 0.00 0.00 69 1018.9
20260903155341 31 229 3.2 3.2 0.00 0.00 0.00 70 1018.9
20260903154836 31 146 4.8 6.4 0.00 0.00 0.00 71 1019.1
20260903154333 31 156 3.2 6.4 0.00 0.00 0.00 67 1019.1
20260903153827 31 271 3.2 3.2 0.00 0.00 0.00 67 1018.8
20260903153323 31 239 3.2 9.7 0.00 0.00 0.00 68 1019.0
20260903152820 31 284 1.6 8.0 0.00 0.00 0.00 69 1019.1
20260903152315 31 3 0.0 3.2 0.00 0.00 0.00 69 1019.0
20260903151810 31 235 3.2 4.8 0.00 0.00 0.00 70 1019.0
20260903151306 30 175 0.0 6.4 0.00 0.00 0.00 70 1019.0
20260903150805 30 278 3.2 6.4 0.00 0.00 0.00 70 1018.8
20260903150300 30 154 3.2 4.8 0.00 0.00 0.00 72 1019.1
20260903145755 30 236 1.6 8.0 0.00 0.00 0.00 72 1018.9
20260903145250 30 168 1.6 3.2 0.00 0.00 0.00 73 1019.1
20260903144749 30 22 0.0 6.4 0.00 0.00 0.00 72 1019.0
20260903144245 30 29 1.6 4.8 0.00 0.00 0.00 72 1018.9
20260903143740 30 299 4.8 6.4 0.00 0.00 0.00 72 1018.6
20260903143237 30 233 3.2 4.8 0.00 0.00 0.00 73 1018.8
20260903142732 30 209 3.2 8.0 0.00 0.00 0.00 73 1018.8
20260903142228 30 156 3.2 4.8 0.00 0.00 0.00 72 1018.7
20260903141724 30 237 4.8 8.0 0.00 0.00 0.00 72 1018.8
20260903141219 30 253 3.2 4.8 0.00 0.00 0.00 72 1018.5
20260903140714 29 207 3.2 3.2 0.00 0.00 0.00 73 1018.4
20260903140209 29 260 0.0 3.2 0.00 0.00 0.00 74 1018.4
20260903135705 29 134 0.0 3.2 0.00 0.00 0.00 74 1018.5
20260903135200 28 339 0.0 3.2 0.00 0.00 0.00 78 1018.3
20260903134658 28 113 1.6 3.2 0.00 0.00 0.00 79 1018.4
20260903134155 27 147 0.0 1.6 0.00 0.00 0.00 79 1018.3
20260903133652 27 190 1.6 1.6 0.00 0.00 0.00 81 1018.3
20260903133148 27 154 0.0 0.0 0.00 0.00 0.00 84 1018.5
20260903132643 27 154 0.0 3.2 0.00 0.00 0.00 83 1018.5
20260903132143 27 279 0.0 1.6 0.00 0.00 0.00 84 1018.7
20260903131637 26 159 0.0 0.0 0.00 0.00 0.00 86 1018.6
20260903131137 26 345 0.0 1.6 0.00 0.00 0.00 87 1018.8
20260903130632 26 159 0.0 3.2 0.00 0.00 0.00 89 1018.9
20260903130126 25 49 0.0 0.0 0.00 0.00 0.00 90 1018.7
20260903125624 25 184 0.0 0.0 0.00 0.00 0.00 94 1018.9
20260903125120 25 174 0.0 1.6 0.00 0.00 0.00 95 1019.1
20260903124619 24 235 0.0 0.0 0.00 0.00 0.00 98 1019.1
20260903124114 24 172 0.0 3.2 0.00 0.00 0.00 99 1019.2
20260903123614 24 184 0.0 3.2 0.00 0.00 0.00 99 1019.2
20260903123112 23 153 3.2 3.2 0.00 0.00 0.00 99 1019.1
20260903122607 23 159 0.0 1.6 0.00 0.00 0.00 99 1018.9
20260903122106 23 167 0.0 1.6 0.00 0.00 0.00 99 1018.9
20260903121601 23 239 0.0 1.6 0.00 0.00 0.00 99 1019.3
20260903121056 23 172 0.0 1.6 0.00 0.00 0.00 99 1019.0
20260903120555 23 176 0.0 1.6 0.00 0.00 0.00 99 1019.1
20260903120050 23 162 1.6 1.6 0.00 0.00 0.00 99 1018.8
20260903115548 23 174 1.6 1.6 0.00 0.00 0.00 99 1018.9
20260903115044 23 143 0.0 0.0 0.00 0.00 0.00 99 1019.0
20260903114538 23 164 0.0 1.6 0.00 0.00 0.00 99 1019.0
20260903114034 22 155 0.0 1.6 0.00 0.00 0.00 99 1018.9
20260903113530 22 159 0.0 0.0 0.00 0.00 0.00 99 1018.8
20260903113026 22 147 0.0 0.0 0.00 0.00 0.00 99 1018.8
20260903112521 22 147 0.0 0.0 0.00 0.00 0.00 99 1018.6
20260903112021 22 164 0.0 1.6 0.00 0.00 0.00 99 1018.8
20260903111520 22 160 1.6 1.6 0.00 0.00 0.00 99 1018.9
20260903111017 22 159 0.0 1.6 0.00 0.00 0.00 99 1018.6
20260903110513 22 133 0.0 0.0 0.00 0.00 0.00 99 1018.7
20260903110007 22 159 0.0 0.0 0.00 0.00 0.00 99 1018.3
20260903105501 22 149 1.6 3.2 0.00 0.00 0.00 99 1018.4
20260903104956 22 147 1.6 1.6 0.00 0.00 0.00 99 1018.5
20260903104455 22 161 0.0 1.6 0.00 0.00 0.00 99 1018.3
20260903103952 22 96 0.0 1.6 0.00 0.00 0.00 99 1018.5
20260903103448 22 146 0.0 1.6 0.00 0.00 0.00 99 1018.4
20260903102943 22 145 0.0 1.6 0.00 0.00 0.00 99 1018.4
20260903102439 22 147 1.6 3.2 0.00 0.00 0.00 99 1018.4
20260903101937 22 124 1.6 1.6 0.00 0.00 0.00 99 1018.5
20260903101432 22 95 1.6 1.6 0.00 0.00 0.00 99 1018.4
20260903100928 22 160 0.0 0.0 0.00 0.00 0.00 99 1018.5
20260903100423 22 177 1.6 3.2 0.00 0.00 0.00 99 1018.4
20260903095920 22 213 0.0 4.8 0.00 0.00 0.00 99 1018.5
20260903095415 22 188 1.6 3.2 0.00 0.00 0.00 99 1018.3
20260903094910 23 163 1.6 3.2 0.00 0.00 0.00 99 1018.5
20260903094409 23 151 3.2 3.2 0.00 0.00 0.00 99 1018.3
20260903093905 23 159 0.0 1.6 0.00 0.00 0.00 99 1018.3
20260903093354 23 92 0.0 0.0 0.00 0.00 0.00 99 1018.4
20260903092850 23 156 0.0 1.6 0.00 0.00 0.00 99 1018.3
20260903092344 23 147 0.0 0.0 0.00 0.00 0.00 99 1018.3
20260903091843 23 59 0.0 0.0 0.00 0.00 0.00 99 1018.3
20260903091342 23 184 0.0 0.0 0.00 0.00 0.00 99 1018.2
20260903090837 23 165 0.0 0.0 0.00 0.00 0.00 99 1018.1
20260903090332 23 145 1.6 1.6 0.00 0.00 0.00 99 1018.2